Regional Weather Roundup
Issued by NWS

Home | Current Version | Previous Version | Graphics & Text | Print | Product List | Glossary On
Versions: 1 2 3 4 5 6 7 8 9 10 11 12 13 14 15 16 17 18 19 20 21 22 23 24 25 26 27 28 29 30 31 32 33 34 35 36 37 38 39 40 41 42 43 44 45 46 47 48 49 50
000
ASUS43 KDMX 260404
RWRIA

WEATHER ROUNDUP FOR IOWA
NATIONAL WEATHER SERVICE DES MOINES IA
  ISSUED BY NWS QUAD CITIES IA IL
1000 PM CST SUN JAN 25 2015

NOTE: "FAIR" INDICATES FEW OR NO CLOUDS BELOW 12,000 FEET WITH NO
SIGNIFICANT WEATHER AND/OR OBSTRUCTIONS TO VISIBILITY.

* - THESE STATIONS ARE NOT NWS STATIONS...THUS NOT UNDER NWS
QUALITY CONTROL.  THEY ALSO DO NOT REPORT WEATHER SUCH
AS PRECIPITATION OR FOG.

IAZ001>003-012>014-020>022-031>034-043>046-260500-
   NORTHWEST IOWA

CITY           SKY/WX    TMP DP  RH WIND       PRES   REMARKS
CARROLL *      CLOUDY    30  28  93 CALM      30.06S
CHEROKEE *     CLOUDY    32  31  96 S5        30.02F WCI  27
DENNISON *     CLOUDY    32  32 100 CALM      30.04S
LE MARS *      CLOUDY    32  32 100 S5        30.02F WCI  27
ORANGE CITY *  CLOUDY    34  30  86 CALM      30.01F
SHELDON *      CLOUDY    32  32 100 SW5       30.00F WCI  27
SIOUX CITY     CLOUDY    34  31  88 CALM      30.04F
SPENCER        CLOUDY    33  29  85 S5        30.01F WCI  29
STORM LAKE *   CLOUDY    30  30 100 S8        30.02F WCI  23
$$

IAZ055>058-069>071-079>083-090>094-260500-
   SOUTHWEST IOWA

CITY           SKY/WX    TMP DP  RH WIND       PRES   REMARKS
ATLANTIC *     CLOUDY    32  30  93 CALM      30.07S
AUDUBON *      CLOUDY    30  27  86 CALM      30.08R
CLARINDA *     CLOUDY    28  27  93 CALM      30.11S
COUNCIL BLFS * CLOUDY    34  32  93 CALM      30.06S
CRESTON *      CLOUDY    30  27  86 CALM      30.07S
HARLAN *       CLOUDY    32  32 100 CALM      30.10S
LAMONI         CLOUDY    31  27  85 N7        30.08R WCI  24
RED OAK *      CLOUDY    30  28  93 CALM      30.09S
SHENANDOAH *   CLOUDY    28  28 100 CALM      30.10S
$$

IAZ047>049-059>061-072>074-084-260500-
   CENTRAL IOWA

CITY           SKY/WX    TMP DP  RH WIND       PRES   REMARKS
AMES           CLOUDY    31  23  72 NW6       30.07S WCI  25
ANKENY *       CLOUDY    32  25  74 CALM      30.08S
BOONE *        CLOUDY    30  25  80 NW8       30.05S WCI  23
CHARITON *     CLOUDY    32  28  86 N7G13     30.07S WCI  26
DES MOINES     CLOUDY    33  24  69 N7        30.08S WCI  27
GRINNELL *     CLOUDY    30  27  90 N6        30.07R WCI  24
KNOXVILLE *    CLOUDY    32  27  80 NW7       30.06S WCI  26
MARSHALLTOWN   CLOUDY    30  26  85 CALM      30.04F
NEWTON *       CLOUDY    30  27  86 N7        30.07S WCI  23
PELLA *        CLOUDY    32  29  88 N6        30.09S WCI  26
PERRY *          N/A     32  28  84 N6        30.07S WCI  26
$$

IAZ004>006-015-016-023>025-035-036-260500-
   NORTH CENTRAL IOWA

CITY           SKY/WX    TMP DP  RH WIND       PRES   REMARKS
ALGONA *       CLOUDY    28  25  86 CALM      30.04F
CLARION *      CLOUDY    28  27  93 NW5       30.05F WCI  23
ESTHERVILLE    CLOUDY    28  25  88 S8        30.01F WCI  20
FORT DODGE *   CLOUDY    28  21  74 CALM      30.07S
MASON CITY     CLOUDY    25  21  85 CALM      30.04F
WEBSTER CITY * CLOUDY    30  27  86 NW8       30.05S WCI  23
IOWA FALLS *   CLOUDY    30  25  81 NW5       30.05F WCI  25
$$

IAZ007>011-017>019-026>030-037>042-050>054-066-260500-
   NORTHEAST IOWA

CITY           SKY/WX    TMP DP  RH WIND       PRES   REMARKS
CEDAR RAPIDS   CLOUDY    21  16  81 NE5       30.05F WCI  15
CHARLES CITY * CLOUDY    27  25  93 W5        30.04F WCI  21
CLINTON *      CLEAR     16  10  79 N9        30.07F WCI   4
DECORAH *      CLOUDY    23  18  80 SE5       30.01F WCI  17
DUBUQUE        CLEAR     17  10  74 NE3       30.04F
MONTICELLO *   CLEAR     16  16 100 CALM      30.06S
OELWEIN *      CLOUDY    25  19  80 CALM      30.05S
WATERLOO       CLOUDY    28  23  81 NW3       30.04F
$$

IAZ064-065-067-068-078-260500-
   EAST CENTRAL IOWA

CITY           SKY/WX    TMP DP  RH WIND       PRES   REMARKS
DAVENPORT      CLEAR     14   8  77 N8        30.06F WCI   3
IOWA CITY      CLEAR     22  15  75 NE3       30.09F
MT. PLEASANT * CLOUDY    25  20  82 N10       30.07S WCI  15
MUSCATINE *    CLEAR     21  16  79 N7        30.09F WCI  13
QUAD CITIES    CLEAR     20  13  74 N5        30.06F WCI  13
$$

IAZ062-063-075>077-085>089-095>099-260500-
   SOUTHEAST IOWA

CITY           SKY/WX    TMP DP  RH WIND       PRES   REMARKS
BURLINGTON     CLOUDY    25  20  81 N12       30.06S WCI  14
FAIRFIELD *    CLOUDY    27  23  86 NE6       30.07S WCI  20
FORT MADISON * CLOUDY    27  23  86 N9        30.07R WCI  17
KEOKUK *       CLEAR     25  21  86 N6        30.07R WCI  18
OTTUMWA        CLOUDY    29  25  85 N3        30.07R
WASHINGTON *   CLOUDY    25  23  93 NE6       30.07S WCI  18
$$

ABBREVIATIONS USED IN REMARKS
   TC - TEMPERATURES IN CELSIUS
  WCI - WIND CHILL INDEX
   HX - HEAT INDEX
  VSB - VISIBILITY
$$



USA.gov is the U.S. government's official web portal to all federal, state and local government web resources and services.